Weather History for Whiteman AFB, MO

Change the Weather History Date:

Sunday, December 9, 2012

  Actual Average Record
Temperature  
Mean Temperature 34 °F -  
Max Temperature 44 °F 43 °F 54 °F (2008)
Min Temperature 23 °F 27 °F -4 °F (2005)
Degree Days  
Heating Degree Days 31    
Moisture  
Dew Point 39 °F    
Average Humidity 95    
Maximum Humidity 100    
Minimum Humidity 63    
Precipitation  
Precipitation 0.00 in - - ()
Sea Level Pressure  
Sea Level Pressure 29.88 in    
Wind  
Wind Speed 5 mph (NW)    
Max Wind Speed 20 mph    
Max Gust Speed 28 mph    
Visibility 5 miles    
Events Fog    
Averages and records for this station are not official NWS values.
T = Trace of Precipitation, MM = Missing Value Source: NWS Daily Summary

Daily Weather History Graph

Daily Weather History Graph

Search for Another Location

Airport:

Trip Planner

Search our weather history database for the weather conditions in past years. The results will help you decide how hot, cold, wet, or windy it might be!

Date:

Astronomy

Dec. 09, 2012 Rise Set
Actual Time 7:21 AM CST 4:52 PM CST
Civil Twilight 6:51 AM CST 5:22 PM CST
Nautical Twilight 6:18 AM CST 5:55 PM CST
Astronomical Twilight 5:45 AM CST 6:27 PM CST
Moon 2:56 AM CST (12/9) 1:58 PM CST (12/9)
Length of Visible Light 10h 31m
Length of Day
9h 31m
Waning Crescent, 18% of the Moon is Illuminated
Dec 9
Waning Crescent
Dec 13
New
Dec 19
First Quarter
Dec 28
Full
Jan 4
Last Quarter

Hourly Weather History & Observations

Time (CST) Temp. Windchill Dew Point Humidity Pressure Visibility Wind Dir Wind Speed Gust Speed Precip Events Conditions
12:03 AM 41.0 °F 36.4 °F 41.0 °F 100% 29.88 in 3.0 mi ESE 6.9 mph - N/A   Light Drizzle
12:19 AM 41.0 °F 37.1 °F 41.0 °F 100% 29.88 in 3.0 mi ESE 5.8 mph - N/A   Overcast
12:32 AM 41.0 °F 37.1 °F 41.0 °F 100% 29.87 in 5.0 mi SE 5.8 mph - N/A   Overcast
12:55 AM 41.5 °F 39.6 °F 41.5 °F 100% 29.87 in 5.0 mi East 3.5 mph - 0.00 in   Overcast
1:16 AM 41.0 °F 39.0 °F 41.0 °F 100% 29.87 in 5.0 mi NE 3.5 mph - N/A   Overcast
1:22 AM 41.0 °F 39.0 °F 41.0 °F 100% 29.87 in 6.0 mi ENE 3.5 mph - N/A   Overcast
1:55 AM 41.5 °F - 41.5 °F 100% 29.87 in 5.0 mi Calm Calm - N/A   Overcast
1:59 AM 41.0 °F 39.0 °F 41.0 °F 100% 29.86 in 4.0 mi East 3.5 mph - N/A   Overcast
2:04 AM 41.0 °F - 41.0 °F 100% 29.86 in 3.0 mi Calm Calm - N/A   Overcast
2:17 AM 41.0 °F - 41.0 °F 100% 29.86 in 3.0 mi Calm Calm - N/A   Overcast
2:55 AM 41.7 °F 38.0 °F 41.7 °F 100% 29.84 in 3.0 mi East 5.8 mph - N/A   Overcast
3:22 AM 42.8 °F - 42.8 °F 100% 29.84 in 2.5 mi Calm Calm - N/A   Overcast
3:23 AM 42.8 °F - 42.8 °F 100% 29.84 in 2.5 mi Calm Calm - N/A   Overcast
3:31 AM 42.8 °F - 42.8 °F 100% 29.83 in 2.5 mi Calm Calm - N/A   Overcast
3:43 AM 42.8 °F 41.1 °F 42.8 °F 100% 29.83 in 2.0 mi ESE 3.5 mph - N/A   Overcast
3:55 AM 42.1 °F - 42.1 °F 100% 29.83 in 1.8 mi Calm Calm - N/A   Overcast
4:08 AM 42.8 °F - 42.8 °F 100% 29.83 in 2.0 mi Calm Calm - N/A   Overcast
4:14 AM 42.8 °F - 42.8 °F 100% 29.83 in 2.0 mi Calm Calm - N/A   Overcast
4:33 AM 42.8 °F - 42.8 °F 100% 29.83 in 2.0 mi Calm Calm - N/A   Overcast
4:35 AM 42.8 °F - 42.8 °F 100% 29.83 in 1.8 mi Calm Calm - N/A   Overcast
4:55 AM 42.4 °F - 42.4 °F 100% 29.83 in 1.8 mi Calm Calm - N/A   Overcast
5:10 AM 42.8 °F - 42.8 °F 100% 29.83 in 1.2 mi Calm Calm - N/A   Overcast
5:20 AM 42.8 °F 41.1 °F 42.8 °F 100% 29.84 in 1.0 mi NNW 3.5 mph - N/A   Overcast
5:25 AM 42.8 °F - 42.8 °F 100% 29.84 in 0.8 mi Calm Calm - N/A   Overcast
5:43 AM 42.8 °F - 42.8 °F 100% 29.83 in 0.8 mi Calm Calm - N/A   Mist
5:55 AM 42.4 °F - 42.4 °F 100% 29.84 in 0.8 mi Calm Calm - N/A   Mist
6:03 AM 42.8 °F 41.1 °F 42.8 °F 100% 29.85 in 0.5 mi West 3.5 mph - N/A Fog Fog
6:21 AM 42.8 °F 40.1 °F 42.8 °F 100% 29.85 in 0.2 mi WNW 4.6 mph - N/A Fog Fog
6:27 AM 42.8 °F 41.1 °F 42.8 °F 100% 29.86 in 0.2 mi WNW 3.5 mph - N/A Fog Fog
6:55 AM 42.3 °F 39.4 °F 42.3 °F 100% 29.83 in 0.2 mi North 4.6 mph - N/A Fog Fog
7:55 AM 41.9 °F 37.5 °F 41.9 °F 100% 29.87 in 0.2 mi NW 6.9 mph - N/A Fog Fog
8:32 AM 42.8 °F 38.0 °F 42.8 °F 100% 29.86 in 0.2 mi NW 8.1 mph - N/A Fog Fog
8:34 AM 42.8 °F 37.5 °F 42.8 °F 100% 29.86 in 0.2 mi NW 9.2 mph - N/A Fog Fog
8:37 AM 42.8 °F 37.5 °F 42.8 °F 100% 29.86 in 0.5 mi NW 9.2 mph - N/A Fog Fog
8:55 AM 41.9 °F 36.3 °F 41.9 °F 100% 29.87 in 0.5 mi NW 9.2 mph - N/A Fog Fog
8:57 AM 42.8 °F 38.6 °F 42.8 °F 100% 29.86 in 0.5 mi NW 6.9 mph - N/A Fog Fog
8:58 AM 42.8 °F 38.6 °F 42.8 °F 100% 29.87 in 0.8 mi NW 6.9 mph - N/A   Overcast
9:07 AM 42.8 °F 38.0 °F 42.8 °F 100% 29.88 in 1.2 mi NW 8.1 mph - N/A   Overcast
9:13 AM 42.8 °F 38.0 °F 42.8 °F 100% 29.88 in 1.5 mi NW 8.1 mph - N/A   Overcast
9:17 AM 42.8 °F 38.0 °F 42.8 °F 100% 29.88 in 2.0 mi WNW 8.1 mph - N/A   Overcast
9:32 AM 42.8 °F 38.0 °F 42.8 °F 100% 29.89 in 5.0 mi WNW 8.1 mph - N/A   Overcast
9:55 AM 41.9 °F 36.3 °F 41.9 °F 100% 29.91 in 7.0 mi NW 9.2 mph - N/A   Overcast
9:58 AM 42.8 °F 38.6 °F 42.8 °F 100% 29.91 in 7.0 mi NW 6.9 mph - N/A   Overcast
10:23 AM 42.8 °F 38.6 °F 42.8 °F 100% 29.90 in 9.0 mi NW 6.9 mph - N/A   Overcast
10:55 AM 42.4 °F 36.5 °F 42.4 °F 100% 29.91 in 10.0 mi NW 10.4 mph - N/A   Overcast
11:32 AM 42.8 °F 37.0 °F 42.8 °F 100% 29.90 in 10.0 mi NNW 10.4 mph - N/A   Overcast
11:55 AM 42.6 °F 39.0 °F 42.6 °F 100% 29.88 in 10.0 mi NW 5.8 mph - N/A   Overcast
12:12 PM 42.8 °F 38.6 °F 42.8 °F 100% 29.86 in 10.0 mi NNW 6.9 mph - N/A   Overcast
12:55 PM 44.1 °F 39.5 °F 43.9 °F 99% 29.87 in 10.0 mi WNW 8.1 mph - N/A   Overcast
1:55 PM 44.2 °F 37.6 °F 43.5 °F 97% 29.89 in 10.0 mi WNW 13.8 mph - N/A   Overcast
2:04 PM 44.6 °F 37.2 °F 42.8 °F 93% 29.89 in 10.0 mi NW 17.3 mph - N/A   Overcast
2:55 PM 43.2 °F 36.2 °F 41.2 °F 93% 29.88 in 10.0 mi NW 13.8 mph - N/A   Overcast
3:55 PM 42.1 °F 36.1 °F 37.4 °F 83% 29.91 in 10.0 mi NW 10.4 mph - N/A   Mostly Cloudy
4:12 PM 41.0 °F 34.7 °F 37.4 °F 87% 29.91 in 10.0 mi NW 10.4 mph - N/A   Scattered Clouds
4:25 PM 41.0 °F 34.3 °F 35.6 °F 81% 29.92 in 10.0 mi NW 11.5 mph - N/A   Mostly Cloudy
4:55 PM 40.3 °F 31.6 °F 34.2 °F 79% 29.93 in 10.0 mi NW 17.3 mph 23.0 mph N/A   Mostly Cloudy
5:55 PM 36.1 °F 27.7 °F 28.0 °F 72% 29.96 in 10.0 mi NW 12.7 mph - N/A   Clear
6:55 PM 32.0 °F 20.1 °F 21.2 °F 64% 29.99 in 10.0 mi NW 19.6 mph 24.2 mph N/A   Clear
7:55 PM 28.6 °F 18.2 °F 18.1 °F 65% 30.02 in 10.0 mi NW 12.7 mph 24.2 mph N/A   Clear
8:55 PM 27.3 °F 15.2 °F 16.3 °F 63% 30.04 in 10.0 mi NNW 16.1 mph 26.5 mph N/A   Clear
9:55 PM 26.1 °F 15.0 °F 16.3 °F 67% 30.04 in 10.0 mi NW 12.7 mph 23.0 mph N/A   Partly Cloudy
10:55 PM 24.4 °F 11.5 °F 14.7 °F 67% 30.04 in 10.0 mi NW 16.1 mph 27.6 mph N/A   Scattered Clouds
11:55 PM 23.2 °F 10.3 °F 14.2 °F 68% 30.06 in 10.0 mi WNW 15.0 mph - N/A   Clear